Overview Statistics Trail Chart Weather Telemetry Raw packets
 

This is the latest recevied weather packets stored in our database for station/object N5TDX. If no packets are shown the sender has not sent any weather packets the latest 10 day(s).

<< 4 5 6 7 8 9 10 >>
Time Temp. Humidity Pressure Rain* Wind** Luminosity Snow
1788629092 37.22° C 38% 1011.7 hPa 0 mm - - -
1788628788 36.67° C 39% 1011.9 hPa 0 mm - - -
1788628484 36.67° C 39% 1011.9 hPa 0 mm - - -
1788628180 36.11° C 40% 1011.9 hPa 0 mm - - -
1788627876 36.11° C 40% 1012 hPa 0 mm - - -
1788627576 36.11° C 40% 1011.8 hPa 0 mm - - -
1788627271 36.11° C 40% 1012 hPa 0 mm - - -
1788626966 36.11° C 40% 1012 hPa 0 mm - - -
1788626666 35.56° C 41% 1012 hPa 0 mm - - -
1788626361 35.56° C 41% 1012 hPa 0 mm - - -
1788626058 35° C 43% 1012.1 hPa 0 mm - - -
1788625753 35° C 43% 1012 hPa 0 mm - - -
1788625448 34.44° C 45% 1012.1 hPa 0 mm - - -
1788625143 34.44° C 47% 1012.3 hPa 0 mm - - -
1788624842 34.44° C 44% 1012.1 hPa 0 mm - - -
1788624540 35° C 44% 1012.1 hPa 0 mm - - -
1788624235 34.44° C 46% 1011.9 hPa 0 mm - - -
1788623935 33.89° C 48% 1011.9 hPa 0 mm - - -
1788623635 33.33° C 49% 1012.1 hPa 0 mm - - -
1788623333 33.33° C 50% 1012.1 hPa 0 mm - - -
1788623029 33.33° C 52% 1012.1 hPa 0 mm - - -
1788622724 33.33° C 52% 1012.1 hPa 0 mm - - -
1788622439 32.78° C 53% 1011.9 hPa 0 mm - - -
1788622121 32.22° C 56% 1012.2 hPa 0 mm - - -
1788621819 32.22° C 54% 1012.1 hPa 0 mm - - -

* Rain latest hour (hover to see other rain measurements)
** Current wind speed in m/s (hover to see current wind gust speed)